﻿測定場所 (Monitoring sites),日付 (Measurement date),時間 (Measurement time),線量率 最大値 (max) μGy/h,線量率 最小値 (min) μGy/h,線量率 平均値 (average) μGy/h,
江戸川 (Edogawa),2012-05-27,23:01～24:00,0.130,0.114,0.121,
江戸川 (Edogawa),2012-05-27,22:01～23:00,0.127,0.115,0.121,
江戸川 (Edogawa),2012-05-27,21:01～22:00,0.127,0.115,0.121,
江戸川 (Edogawa),2012-05-27,20:01～21:00,0.128,0.116,0.122,
江戸川 (Edogawa),2012-05-27,19:01～20:00,0.127,0.113,0.121,
江戸川 (Edogawa),2012-05-27,18:01～19:00,0.127,0.113,0.121,
江戸川 (Edogawa),2012-05-27,17:01～18:00,0.128,0.114,0.121,
江戸川 (Edogawa),2012-05-27,16:01～17:00,0.127,0.114,0.121,
江戸川 (Edogawa),2012-05-27,15:01～16:00,0.129,0.113,0.122,
江戸川 (Edogawa),2012-05-27,14:01～15:00,0.129,0.116,0.121,
江戸川 (Edogawa),2012-05-27,13:01～14:00,0.129,0.115,0.121,
江戸川 (Edogawa),2012-05-27,12:01～13:00,0.128,0.112,0.120,
江戸川 (Edogawa),2012-05-27,11:01～12:00,0.129,0.114,0.122,
江戸川 (Edogawa),2012-05-27,10:01～11:00,0.127,0.111,0.120,
江戸川 (Edogawa),2012-05-27,09:01～10:00,0.127,0.115,0.121,
江戸川 (Edogawa),2012-05-27,08:01～09:00,0.127,0.110,0.120,
江戸川 (Edogawa),2012-05-27,07:01～08:00,0.127,0.112,0.121,
江戸川 (Edogawa),2012-05-27,06:01～07:00,0.128,0.114,0.121,
江戸川 (Edogawa),2012-05-27,05:01～06:00,0.126,0.115,0.120,
江戸川 (Edogawa),2012-05-27,04:01～05:00,0.129,0.114,0.121,
江戸川 (Edogawa),2012-05-27,03:01～04:00,0.126,0.112,0.120,
江戸川 (Edogawa),2012-05-27,02:01～03:00,0.128,0.115,0.121,
江戸川 (Edogawa),2012-05-27,01:01～02:00,0.127,0.113,0.121,
江戸川 (Edogawa),2012-05-27,00:01～01:00,0.128,0.116,0.121,
江戸川 (Edogawa),2012-05-26,23:01～24:00,0.129,0.115,0.121,
江戸川 (Edogawa),2012-05-26,22:01～23:00,0.129,0.115,0.120,
江戸川 (Edogawa),2012-05-26,21:01～22:00,0.130,0.116,0.121,
江戸川 (Edogawa),2012-05-26,20:01～21:00,0.131,0.115,0.121,
江戸川 (Edogawa),2012-05-26,19:01～20:00,0.124,0.118,0.121,
江戸川 (Edogawa),2012-05-26,18:01～19:00,0.123,0.118,0.121,
江戸川 (Edogawa),2012-05-26,17:01～18:00,0.124,0.116,0.121,
江戸川 (Edogawa),2012-05-26,16:01～17:00,0.123,0.117,0.120,
江戸川 (Edogawa),2012-05-26,15:01～16:00,0.124,0.117,0.121,
江戸川 (Edogawa),2012-05-26,14:01～15:00,0.124,0.118,0.121,
江戸川 (Edogawa),2012-05-26,13:01～14:00,0.125,0.117,0.121,
江戸川 (Edogawa),2012-05-26,12:01～13:00,0.123,0.119,0.121,
江戸川 (Edogawa),2012-05-26,11:01～12:00,0.124,0.118,0.120,
江戸川 (Edogawa),2012-05-26,10:01～11:00,0.124,0.117,0.120,
江戸川 (Edogawa),2012-05-26,09:01～10:00,0.124,0.118,0.120,
江戸川 (Edogawa),2012-05-26,08:01～09:00,0.127,0.113,0.121,
江戸川 (Edogawa),2012-05-26,07:01～08:00,0.129,0.112,0.120,
江戸川 (Edogawa),2012-05-26,06:01～07:00,0.127,0.115,0.120,
江戸川 (Edogawa),2012-05-26,05:01～06:00,0.126,0.112,0.120,
江戸川 (Edogawa),2012-05-26,04:01～05:00,0.129,0.113,0.120,
江戸川 (Edogawa),2012-05-26,03:01～04:00,0.126,0.112,0.120,
江戸川 (Edogawa),2012-05-26,02:01～03:00,0.125,0.111,0.120,
江戸川 (Edogawa),2012-05-26,01:01～02:00,0.125,0.113,0.120,
江戸川 (Edogawa),2012-05-26,00:01～01:00,0.126,0.113,0.120,
江戸川 (Edogawa),2012-05-25,23:01～24:00,0.127,0.111,0.120,
江戸川 (Edogawa),2012-05-25,22:01～23:00,0.127,0.114,0.121,
江戸川 (Edogawa),2012-05-25,21:01～22:00,0.129,0.115,0.122,
江戸川 (Edogawa),2012-05-25,20:01～21:00,0.128,0.115,0.120,
江戸川 (Edogawa),2012-05-25,19:01～20:00,0.130,0.114,0.122,
江戸川 (Edogawa),2012-05-25,18:01～19:00,0.127,0.110,0.120,
江戸川 (Edogawa),2012-05-25,17:01～18:00,0.129,0.113,0.120,
江戸川 (Edogawa),2012-05-25,16:01～17:00,0.128,0.114,0.120,
江戸川 (Edogawa),2012-05-25,15:01～16:00,0.131,0.113,0.122,
江戸川 (Edogawa),2012-05-25,14:01～15:00,0.131,0.116,0.124,
江戸川 (Edogawa),2012-05-25,13:01～14:00,0.129,0.116,0.122,
江戸川 (Edogawa),2012-05-25,12:01～13:00,0.127,0.115,0.120,
江戸川 (Edogawa),2012-05-25,11:01～12:00,0.124,0.113,0.118,
江戸川 (Edogawa),2012-05-25,10:01～11:00,0.123,0.109,0.116,
江戸川 (Edogawa),2012-05-25,09:01～10:00,0.127,0.112,0.118,
江戸川 (Edogawa),2012-05-25,08:01～09:00,0.128,0.111,0.117,
江戸川 (Edogawa),2012-05-25,07:01～08:00,0.124,0.112,0.119,
江戸川 (Edogawa),2012-05-25,06:01～07:00,0.128,0.114,0.120,
江戸川 (Edogawa),2012-05-25,05:01～06:00,0.126,0.113,0.120,
江戸川 (Edogawa),2012-05-25,04:01～05:00,0.126,0.112,0.120,
江戸川 (Edogawa),2012-05-25,03:01～04:00,0.126,0.113,0.120,
江戸川 (Edogawa),2012-05-25,02:01～03:00,0.126,0.114,0.120,
江戸川 (Edogawa),2012-05-25,01:01～02:00,0.127,0.114,0.120,
江戸川 (Edogawa),2012-05-25,00:01～01:00,0.129,0.113,0.120,
江戸川 (Edogawa),2012-05-24,23:01～24:00,0.127,0.111,0.120,
江戸川 (Edogawa),2012-05-24,22:01～23:00,0.128,0.114,0.120,
江戸川 (Edogawa),2012-05-24,21:01～22:00,0.126,0.112,0.120,
江戸川 (Edogawa),2012-05-24,20:01～21:00,0.128,0.112,0.119,
江戸川 (Edogawa),2012-05-24,19:01～20:00,0.125,0.114,0.120,
江戸川 (Edogawa),2012-05-24,18:01～19:00,0.127,0.112,0.120,
江戸川 (Edogawa),2012-05-24,17:01～18:00,0.126,0.114,0.120,
江戸川 (Edogawa),2012-05-24,16:01～17:00,0.129,0.110,0.119,
江戸川 (Edogawa),2012-05-24,15:01～16:00,0.126,0.113,0.119,
江戸川 (Edogawa),2012-05-24,14:01～15:00,0.129,0.113,0.120,
江戸川 (Edogawa),2012-05-24,13:01～14:00,0.129,0.113,0.120,
江戸川 (Edogawa),2012-05-24,12:01～13:00,0.128,0.112,0.118,
江戸川 (Edogawa),2012-05-24,11:01～12:00,0.125,0.110,0.117,
江戸川 (Edogawa),2012-05-24,10:01～11:00,0.124,0.112,0.118,
江戸川 (Edogawa),2012-05-24,09:01～10:00,0.123,0.110,0.118,
江戸川 (Edogawa),2012-05-24,08:01～09:00,0.127,0.111,0.118,
江戸川 (Edogawa),2012-05-24,07:01～08:00,0.126,0.109,0.119,
江戸川 (Edogawa),2012-05-24,06:01～07:00,0.124,0.112,0.118,
江戸川 (Edogawa),2012-05-24,05:01～06:00,0.123,0.114,0.118,
江戸川 (Edogawa),2012-05-24,04:01～05:00,0.127,0.111,0.119,
江戸川 (Edogawa),2012-05-24,03:01～04:00,0.126,0.111,0.118,
江戸川 (Edogawa),2012-05-24,02:01～03:00,0.125,0.113,0.118,
江戸川 (Edogawa),2012-05-24,01:01～02:00,0.126,0.113,0.118,
江戸川 (Edogawa),2012-05-24,00:01～01:00,0.126,0.113,0.119,
江戸川 (Edogawa),2012-05-23,23:01～24:00,0.126,0.108,0.118,
江戸川 (Edogawa),2012-05-23,22:01～23:00,0.129,0.111,0.118,
江戸川 (Edogawa),2012-05-23,21:01～22:00,0.125,0.110,0.119,
江戸川 (Edogawa),2012-05-23,20:01～21:00,0.126,0.112,0.118,
江戸川 (Edogawa),2012-05-23,19:01～20:00,0.124,0.111,0.118,
江戸川 (Edogawa),2012-05-23,18:01～19:00,0.125,0.112,0.118,
江戸川 (Edogawa),2012-05-23,17:01～18:00,0.126,0.108,0.118,
江戸川 (Edogawa),2012-05-23,16:01～17:00,0.118,0.104,0.113,
江戸川 (Edogawa),2012-05-23,15:01～16:00,0.122,0.106,0.113,
江戸川 (Edogawa),2012-05-23,14:01～15:00,0.124,0.108,0.114,
江戸川 (Edogawa),2012-05-23,13:01～14:00,0.123,0.106,0.114,
江戸川 (Edogawa),2012-05-23,12:01～13:00,0.120,0.108,0.114,
江戸川 (Edogawa),2012-05-23,11:01～12:00,0.120,0.108,0.114,
江戸川 (Edogawa),2012-05-23,10:01～11:00,0.121,0.108,0.114,
江戸川 (Edogawa),2012-05-23,09:01～10:00,0.122,0.108,0.114,
江戸川 (Edogawa),2012-05-23,08:01～09:00,0.123,0.106,0.115,
江戸川 (Edogawa),2012-05-23,07:01～08:00,0.122,0.109,0.116,
江戸川 (Edogawa),2012-05-23,06:01～07:00,0.124,0.109,0.116,
江戸川 (Edogawa),2012-05-23,05:01～06:00,0.121,0.105,0.115,
江戸川 (Edogawa),2012-05-23,04:01～05:00,0.122,0.109,0.116,
江戸川 (Edogawa),2012-05-23,03:01～04:00,0.123,0.109,0.117,
江戸川 (Edogawa),2012-05-23,02:01～03:00,0.122,0.109,0.116,
江戸川 (Edogawa),2012-05-23,01:01～02:00,0.126,0.108,0.117,
江戸川 (Edogawa),2012-05-23,00:01～01:00,0.127,0.114,0.118,
江戸川 (Edogawa),2012-05-22,23:01～24:00,0.130,0.113,0.122,
江戸川 (Edogawa),2012-05-22,22:01～23:00,0.130,0.118,0.124,
江戸川 (Edogawa),2012-05-22,21:01～22:00,0.131,0.115,0.123,
江戸川 (Edogawa),2012-05-22,20:01～21:00,0.130,0.116,0.123,
江戸川 (Edogawa),2012-05-22,19:01～20:00,0.129,0.114,0.122,
江戸川 (Edogawa),2012-05-22,18:01～19:00,0.125,0.111,0.119,
江戸川 (Edogawa),2012-05-22,17:01～18:00,0.128,0.113,0.119,
江戸川 (Edogawa),2012-05-22,16:01～17:00,0.129,0.114,0.121,
江戸川 (Edogawa),2012-05-22,15:01～16:00,0.130,0.117,0.124,
江戸川 (Edogawa),2012-05-22,14:01～15:00,0.134,0.115,0.122,
江戸川 (Edogawa),2012-05-22,13:01～14:00,0.126,0.114,0.121,
江戸川 (Edogawa),2012-05-22,12:01～13:00,0.131,0.114,0.121,
江戸川 (Edogawa),2012-05-22,11:01～12:00,0.128,0.114,0.120,
江戸川 (Edogawa),2012-05-22,10:01～11:00,0.130,0.114,0.122,
江戸川 (Edogawa),2012-05-22,09:01～10:00,0.131,0.116,0.124,
江戸川 (Edogawa),2012-05-22,08:01～09:00,0.128,0.112,0.120,
江戸川 (Edogawa),2012-05-22,07:01～08:00,0.127,0.111,0.120,
江戸川 (Edogawa),2012-05-22,06:01～07:00,0.127,0.113,0.120,
江戸川 (Edogawa),2012-05-22,05:01～06:00,0.125,0.114,0.120,
江戸川 (Edogawa),2012-05-22,04:01～05:00,0.127,0.110,0.119,
江戸川 (Edogawa),2012-05-22,03:01～04:00,0.126,0.114,0.119,
江戸川 (Edogawa),2012-05-22,02:01～03:00,0.127,0.114,0.120,
江戸川 (Edogawa),2012-05-22,01:01～02:00,0.127,0.115,0.121,
江戸川 (Edogawa),2012-05-22,00:01～01:00,0.129,0.113,0.120,
江戸川 (Edogawa),2012-05-21,23:01～24:00,0.127,0.113,0.120,
江戸川 (Edogawa),2012-05-21,22:01～23:00,0.130,0.115,0.121,
江戸川 (Edogawa),2012-05-21,21:01～22:00,0.129,0.116,0.121,
江戸川 (Edogawa),2012-05-21,20:01～21:00,0.127,0.114,0.121,
江戸川 (Edogawa),2012-05-21,19:01～20:00,0.129,0.114,0.121,
江戸川 (Edogawa),2012-05-21,18:01～19:00,0.128,0.114,0.121,
江戸川 (Edogawa),2012-05-21,17:01～18:00,0.129,0.116,0.121,
江戸川 (Edogawa),2012-05-21,16:01～17:00,0.127,0.113,0.121,
江戸川 (Edogawa),2012-05-21,15:01～16:00,0.129,0.113,0.121,
江戸川 (Edogawa),2012-05-21,14:01～15:00,0.128,0.115,0.121,
江戸川 (Edogawa),2012-05-21,13:01～14:00,0.128,0.112,0.120,
江戸川 (Edogawa),2012-05-21,12:01～13:00,0.127,0.114,0.121,
江戸川 (Edogawa),2012-05-21,11:01～12:00,0.128,0.116,0.121,
江戸川 (Edogawa),2012-05-21,10:01～11:00,0.127,0.116,0.122,
江戸川 (Edogawa),2012-05-21,09:01～10:00,0.129,0.115,0.122,
江戸川 (Edogawa),2012-05-21,08:01～09:00,0.129,0.116,0.122,
江戸川 (Edogawa),2012-05-21,07:01～08:00,0.126,0.113,0.120,
江戸川 (Edogawa),2012-05-21,06:01～07:00,0.131,0.114,0.122,
江戸川 (Edogawa),2012-05-21,05:01～06:00,0.128,0.116,0.122,
江戸川 (Edogawa),2012-05-21,04:01～05:00,0.129,0.112,0.122,
江戸川 (Edogawa),2012-05-21,03:01～04:00,0.127,0.115,0.122,
江戸川 (Edogawa),2012-05-21,02:01～03:00,0.128,0.115,0.121,
江戸川 (Edogawa),2012-05-21,01:01～02:00,0.130,0.113,0.121,
江戸川 (Edogawa),2012-05-21,00:01～01:00,0.130,0.115,0.121,
